RH
3 3 2 2 2 2 4 7 11 16 19 17 24 30 32 27 8 6 22 57 55 44 8 6 4 4 8 31 53 84 91 92 70 36 35 21 24 18 17 18 18 22 22 20 19
3 3 2 2 2 4 6 10 14 19 23 22 26 29 30 36 19 7 42 52 53 14 10 10 7 7 15 18 22 65 79 43 27 24 30 25 24 22 21 21 19 21 18 17 16
3 3 3 2 3 6 8 13 20 24 24 24 22 7 6 27 10 18 40 20 20 17 14 12 10 12 18 20 24 24 43 28 24 23 25 28 26 21 21 24 20 21 17 18 16
3 3 3 3 3 6 10 16 20 21 23 22 20 17 8 11 18 19 26 13 12 18 16 15 13 18 27 28 25 21 23 24 24 24 30 29 22 24 20 20 16 17 18 22 21
3 3 3 3 3 7 12 14 17 17 14 8 8 8 8 14 23 19 21 15 11 18 21 17 20 23 26 27 24 23 22 25 22 21 24 22 25 27 26 22 21 21 20 25 28
3 3 4 4 3 6 11 13 15 15 16 16 11 11 8 21 20 21 20 14 13 13 22 21 22 23 24 26 28 26 31 29 22 21 24 32 32 31 24 21 24 24 26 29 32
4 3 4 4 4 6 10 12 12 10 14 15 13 13 10 20 19 17 17 18 18 20 22 21 22 23 25 28 27 26 27 29 24 28 33 29 40 38 24 23 27 29 31 33 35
4 3 3 5 3 6 10 12 10 9 11 12 8 8 19 20 19 18 15 12 12 26 24 22 22 26 31 32 30 33 35 48 31 31 29 32 50 35 30 32 31 32 36 36 46
5 3 3 5 4 6 10 12 11 7 9 8 9 9 14 16 20 19 21 20 14 26 26 24 22 32 36 50 54 51 71 53 44 30 36 41 52 38 36 39 40 39 44 45 40
6 4 3 6 4 6 10 10 10 11 9 9 9 10 17 23 24 18 16 20 19 25 24 25 29 45 54 58 82 72 78 62 57 41 42 52 55 42 43 47 53 50 45 41 39
7 5 4 6 6 7 11 10 12 11 16 17 22 19 24 22 24 24 22 20 18 26 52 38 53 67 61 55 53 67 86 76 56 42 50 52 54 48 56 51 53 50 46 47 44
8 5 4 6 8 11 10 13 17 17 22 20 22 25 26 30 25 32 26 27 33 44 49 44 64 51 49 44 50 58 71 78 55 45 50 57 62 51 55 56 53 52 47 47 46
7 5 5 7 9 14 12 13 18 20 22 23 22 26 27 28 31 35 36 38 48 49 67 73 49 41 42 47 52 54 71 83 77 56 54 63 62 58 50 51 54 55 51 49 47
7 5 6 9 13 17 19 20 23 28 31 24 24 27 24 23 28 34 37 40 47 64 57 44 41 42 50 42 42 75 51 59 66 80 93 66 88 69 60 64 62 55 52 48 51
7 6 8 10 13 22 23 22 33 40 40 26 29 28 32 24 31 33 37 37 58 58 52 45 52 54 55 43 44 66 60 61 60 90 88 69 90 73 70 65 75 55 51 48 54
7 7 10 11 12 21 30 23 30 60 40 25 33 43 42 39 41 40 41 40 48 50 46 58 47 52 50 42 46 60 58 52 58 80 77 71 74 69 63 84 75 54 47 52 57
8 7 10 10 14 14 28 31 55 47 19 31 47 48 48 51 46 50 55 78 77 74 82 65 56 47 43 68 58 78 79 88 83 84 71 65 66 68 68 71 55 52 48 55 60
10 8 9 11 9 9 19 32 37 22 29 45 51 46 53 56 53 57 61 79 72 79 89 97 64 58 46 73 85 95 82 88 100 85 67 50 88 64 68 50 47 45 53 60 66
13 12 11 11 8 8 17 51 18 39 51 56 46 45 43 53 63 66 77 84 86 81 72 90 76 47 49 62 71 78 88 72 99 93 100 67 67 57 60 50 48 56 62 71 78
15 12 13 10 8 8 47 38 44 46 48 47 67 60 79 70 71 82 80 69 75 64 61 76 99 52 49 63 65 72 80 88 91 98 95 63 67 66 82 64 60 66 78 90 94
16 11 12 11 11 10 62 60 52 49 48 50 53 76 83 84 76 86 82 63 76 62 73 88 94 69 58 74 83 90 94 93 95 92 98 92 65 76 86 60 68 84 89 92 95
13 24 13 11 20 42 66 44 43 48 43 52 57 73 79 75 85 75 76 66 56 60 73 82 96 99 74 72 86 94 92 95 97 94 93 94 79 85 73 61 72 91 92 93 96
17 15 17 12 45 61 46 44 43 42 45 48 50 55 65 69 74 68 56 45 48 54 74 91 93 100 68 64 76 100 97 95 94 95 92 97 77 59 58 65 76 86 89 91 96
14 62 21 14 34 57 67 46 48 46 52 50 49 50 54 64 59 76 59 51 46 52 58 62 96 85 93 67 77 88 82 89 96 97 94 78 83 72 66 87 85 88 91 94 96
24 37 25 58 47 45 48 76 43 47 52 53 50 50 73 87 75 76 64 59 53 60 60 76 97 89 79 73 76 85 88 96 97 88 98 74 93 75 80 92 91 94 93 94 93
16 21 30 54 52 52 64 69 46 55 55 52 53 52 69 84 64 66 58 64 73 62 75 79 95 89 87 68 92 99 96 88 69 71 80 81 90 74 82 83 86 88 94 93 93
23 16 16 68 62 68 56 64 62 53 47 48 51 72 74 66 55 55 57 58 59 73 84 95 98 95 95 68 83 94 96 96 77 73 80 97 88 70 88 89 87 92 95 94 95
Wind_Speed
17 16 16 16 16 14 12 11 10 11 8 6 6 7 7 6 14 28 30 29 27 23 24 23 14 8 1 4 3 2 2 3 4 5 5 14 9 7 12 13 13 5 4 19 32
17 16 16 15 14 12 10 10 9 10 11 9 8 9 9 7 5 38 29 29 23 25 27 24 22 12 5 5 6 5 2 1 3 3 4 10 10 16 9 15 12 10 24 29 33
16 15 14 14 12 10 8 8 9 11 13 12 9 13 15 4 5 31 33 26 23 24 22 19 13 7 7 7 8 5 2 4 5 11 15 5 8 10 11 6 7 22 35 31 34
15 15 13 14 11 8 7 7 8 10 9 9 6 6 13 12 5 29 29 26 24 20 19 15 17 6 5 4 7 3 5 3 8 14 6 5 7 6 11 16 28 33 28 28 29
15 15 13 14 11 8 5 6 7 9 10 13 18 10 5 19 17 27 30 23 22 20 18 15 19 7 4 3 4 3 4 10 15 10 8 15 8 7 24 25 13 22 27 27 31
16 16 14 15 13 8 5 5 3 6 5 2 2 13 22 13 21 30 30 25 22 20 13 13 9 5 4 2 3 6 7 8 6 7 13 7 7 9 7 7 19 31 27 34 30
17 16 16 15 14 8 5 5 5 7 5 5 4 2 27 16 22 29 31 21 19 15 6 7 9 16 3 3 11 6 4 6 1 8 4 14 7 6 14 16 30 29 32 33 29
16 16 17 14 14 7 4 7 5 7 8 7 5 8 9 17 23 31 33 20 17 10 4 6 5 10 12 10 5 5 3 6 5 6 5 3 10 6 27 29 28 28 33 28 19
17 17 18 13 15 8 3 5 7 10 15 15 8 4 6 16 27 35 34 20 20 5 8 4 5 6 11 3 4 7 4 9 8 6 4 4 19 13 27 32 30 22 12 16 18
18 17 18 12 15 9 3 7 7 4 2 5 21 4 15 17 16 36 31 17 18 7 6 7 6 3 4 8 2 7 5 6 17 6 13 13 20 17 22 14 11 11 15 20 26
18 18 18 14 15 10 4 11 1 7 27 19 14 6 10 14 11 36 36 12 16 14 5 7 7 5 8 3 4 4 3 15 16 13 15 14 18 13 2 10 13 14 21 23 27
17 17 19 16 15 11 1 3 6 11 12 11 14 16 11 8 14 36 38 11 10 5 8 5 3 4 7 2 7 5 13 9 11 5 19 10 16 10 2 3 9 13 20 25 32
16 17 19 16 10 10 6 8 14 11 5 6 11 15 16 5 11 29 36 7 5 7 6 3 3 9 4 4 14 13 6 5 13 31 3 10 6 2 1 2 9 16 19 26 29
14 17 19 15 7 12 6 10 11 4 4 9 9 10 18 2 5 23 35 8 10 6 5 1 6 8 5 8 13 7 4 20 18 9 3 6 5 5 2 6 6 17 26 32 36
14 16 18 16 11 11 4 7 7 1 4 6 6 7 8 11 9 22 30 8 2 5 6 4 6 7 5 12 12 6 20 19 10 3 4 5 3 7 4 4 8 18 32 38 37
12 15 17 15 17 15 5 5 5 5 4 5 5 9 7 11 7 16 15 15 4 3 2 4 6 2 2 13 6 15 12 5 2 2 3 4 4 6 3 3 6 14 28 36 40
9 13 17 17 17 15 4 3 4 6 1 8 5 6 2 7 5 9 6 10 6 7 7 7 4 4 7 5 5 11 7 5 8 5 4 5 7 10 3 3 8 21 44 43 41
8 8 18 18 18 15 5 3 10 1 3 2 5 5 5 10 4 9 5 5 6 5 2 4 7 5 9 4 4 4 5 4 4 5 11 14 5 6 5 6 26 43 45 44 43
6 3 17 17 16 14 3 7 2 1 2 6 4 5 4 4 3 7 4 1 3 2 3 4 6 2 2 3 5 6 4 3 3 3 2 4 7 8 3 13 28 41 43 44 46
5 2 17 16 14 11 6 4 2 1 1 2 2 4 4 6 7 7 4 3 4 2 3 3 6 4 4 1 2 4 1 3 2 7 7 5 8 5 7 21 29 31 39 43 43
3 1 15 14 9 9 4 2 2 2 1 1 1 2 2 3 1 3 3 4 1 5 1 4 3 6 5 1 4 3 3 1 1 2 3 7 6 5 4 23 31 32 47 49 50
3 2 13 9 7 6 3 4 3 2 2 2 3 3 3 2 3 2 3 5 3 6 2 3 3 4 7 5 5 4 5 3 1 2 4 6 8 4 12 21 38 43 47 50 48
3 3 9 6 3 2 2 3 2 1 1 1 1 1 3 2 2 3 3 4 7 8 2 3 1 5 9 5 4 2 4 3 4 3 5 6 9 8 23 27 47 44 49 49 49
2 2 7 11 8 7 4 2 3 2 2 1 1 2 1 1 3 4 3 4 15 4 6 2 3 7 7 13 5 11 9 2 3 3 9 15 22 28 27 30 41 53 53 52 47
4 4 3 2 5 6 3 2 3 2 1 2 1 2 4 1 3 4 4 5 5 4 4 3 4 5 12 19 16 14 11 3 4 7 7 19 25 28 24 33 41 52 52 46 52
1 4 6 5 5 3 2 3 5 2 4 3 3 4 6 5 7 6 2 2 6 4 5 2 4 6 12 3 2 4 3 4 6 9 12 17 23 12 44 45 46 49 47 50 54
2 6 5 3 3 3 3 4 5 5 5 4 5 2 5 11 16 20 22 19 16 2 3 2 3 5 5 8 6 3 5 5 11 12 11 6 14 24 29 31 45 52 43 52 52
Wind_Direction
35 33 28 27 26 27 30 39 42 43 33 35 89 61 35 21 27 27 24 358 349 348 355 354 358 354 20 136 139 141 283 264 337 13 330 350 1 339 318 290 311 307 7 318 317
32 32 29 28 28 34 40 52 58 53 44 55 92 34 3 358 354 25 9 354 356 359 2 6 5 26 66 37 26 65 227 115 68 19 348 327 335 323 330 321 299 272 307 317 313
30 31 32 29 31 37 45 65 62 57 53 69 69 46 23 18 30 4 1 1 4 2 9 16 9 50 66 43 16 358 78 336 9 348 340 297 306 324 328 310 272 310 318 324 321
29 31 34 29 32 39 45 70 71 72 69 64 47 32 41 45 49 5 6 0 358 2 6 17 30 45 59 44 360 47 22 26 329 319 315 294 288 287 281 269 290 298 307 317 324
28 30 33 29 35 41 54 63 81 79 73 84 66 57 66 56 35 10 5 359 359 7 18 25 34 35 61 15 26 45 343 331 317 305 269 305 264 283 270 290 297 309 304 314 323
26 29 32 28 33 42 69 59 58 45 57 107 25 53 54 75 22 11 5 5 4 3 18 35 33 45 60 30 61 307 319 298 286 316 303 305 270 294 279 271 305 313 300 315 318
25 27 27 28 31 45 85 43 39 53 58 43 36 358 42 54 19 8 3 11 7 3 48 46 56 56 3 5 336 312 334 325 328 318 300 341 304 228 279 278 293 296 306 315 318
23 26 23 28 27 46 88 35 74 59 64 53 42 57 78 28 18 10 2 8 13 11 64 62 81 54 40 321 9 17 36 343 309 302 294 67 294 293 293 296 292 293 300 310 326
21 25 20 25 23 35 94 48 103 92 82 54 44 78 46 10 12 10 5 6 12 66 71 88 68 60 17 32 23 19 277 304 316 270 289 1 294 281 297 295 291 291 315 339 348
20 22 17 22 24 33 90 98 89 161 349 359 32 49 23 354 4 4 9 13 17 80 70 46 48 55 21 33 337 315 317 278 299 277 310 287 279 300 317 324 56 28 10 356 350
17 17 13 18 26 30 125 130 59 76 66 74 68 67 359 2 9 7 7 13 25 41 18 22 55 30 321 320 235 250 256 285 288 292 312 301 295 294 11 57 46 19 2 350 342
18 16 11 12 25 24 40 211 140 135 90 71 54 36 29 2 13 10 8 30 29 31 349 28 84 320 294 344 351 318 300 294 289 271 321 309 291 280 221 56 40 9 356 347 340
19 16 11 13 28 23 62 131 139 130 86 47 33 21 16 23 39 7 8 359 28 32 17 105 316 326 338 328 344 327 288 270 285 317 296 331 315 0 190 191 353 358 348 342 339
21 15 11 16 20 13 73 141 150 133 87 340 359 15 5 96 54 14 7 15 22 8 353 334 335 348 336 351 348 313 311 298 302 335 293 26 291 296 321 299 357 347 345 340 336
18 17 15 18 16 24 31 162 171 160 32 347 2 0 21 61 344 8 13 31 41 345 57 287 343 349 341 340 339 274 305 298 301 154 47 337 46 276 2 329 338 344 340 334 328
16 16 16 11 11 17 41 142 155 48 315 355 11 0 6 22 18 352 18 29 24 14 39 249 305 254 339 313 328 329 310 345 49 98 26 253 74 274 272 245 299 317 329 331 324
14 19 13 8 7 8 28 144 40 79 32 347 340 353 18 343 355 6 7 19 46 13 6 329 320 330 353 325 334 2 353 347 2 7 242 192 322 251 236 242 319 328 337 328 322
5 12 13 8 5 2 13 60 61 167 352 349 349 323 41 1 22 344 13 18 31 60 6 25 334 18 350 147 234 335 91 109 299 309 297 302 226 261 178 295 340 341 324 321 320
4 15 11 7 3 0 15 49 171 284 292 341 316 22 352 17 5 2 33 271 256 42 74 0 273 320 303 30 110 314 33 202 268 290 344 258 284 294 333 334 337 327 325 322 317
1 58 8 4 2 7 65 111 155 100 47 29 70 46 331 328 3 27 5 246 319 242 206 252 299 266 297 80 36 110 254 5 9 329 307 260 296 257 326 334 332 327 322 318 314
4 79 5 2 7 46 89 156 142 125 117 87 106 346 229 302 315 312 265 281 229 316 139 152 157 288 350 39 206 346 16 353 220 249 279 309 293 203 306 339 330 322 320 317 316
20 46 7 8 33 53 83 139 134 134 74 82 90 137 183 319 301 300 267 210 334 321 316 218 172 294 264 284 193 165 180 164 218 295 242 254 273 253 326 334 324 317 317 315 313
51 30 16 25 85 71 126 76 86 95 70 89 139 173 176 257 341 232 277 264 307 337 202 235 328 317 342 358 357 185 228 183 249 233 237 300 274 309 318 323 321 320 318 316 317
48 33 33 55 76 120 133 139 130 88 110 195 153 131 34 292 209 282 287 290 320 298 287 4 156 176 228 258 243 295 287 258 220 264 309 278 293 307 316 324 323 324 321 319 323
44 85 69 6 33 99 106 155 137 196 176 207 229 214 150 288 288 236 247 307 299 333 0 98 250 215 257 270 275 263 270 180 200 243 272 303 302 301 321 320 318 315 317 320 329
72 147 105 93 116 95 355 226 165 176 147 236 206 175 173 196 198 254 247 208 258 318 347 1 278 337 298 278 172 271 176 307 292 277 269 294 288 310 314 317 319 319 322 329 330
120 138 147 134 117 99 209 185 198 156 214 228 218 164 231 240 258 269 271 258 253 293 313 338 326 332 273 314 325 7 209 257 291 289 295 313 309 323 320 323 322 319 327 329 328